Retour au catalogue

LANDSAT 9

ActifScienceSSO
NORAD 49260·PAYLOAD·🇺🇸 United States

Lancé Sep 27, 2021 depuis Vandenberg Space Force Base

Loading…

Prochains Passages (prochaines 24 heures)

TLE

FraisSource: Space-Track

Époque: Sep 14, 2026, 14:30 UTC

1 49260U 21088A   26257.60467046  .00000225  00000-0  60002-4 0  9996
2 49260  98.2202 326.6627 0001492  99.8399 260.2968 14.57111046264028

Suivez LANDSAT 9 en temps réel avec AllMySat

Download on the App Store